[[{"header":{"parameterUnit":"m.s-1","parameterCategory":2,"la1":30.2991,"la2":30.254,"lo1":-89.0895,"lo2":-89.0444,"dy":0.0017,"dx":0.0017,"nx":28,"ny":28,"refTime":"2024-09-01T21:00:00:Z","depth":"0","parameterNumber":2,"parameterNumberName":"U-component_of_CURRENTS"},"data":[0,0,0,0,0,0,0,0,0,0,0,0,0,0,0,0,0,0,0,0,0,0,0,0,0,0,0,0,0,0,0,0,0,0,0,0,0,0,0,0,0,0,0,0,0,0,0,0,0,0,0,0,0,0,0,0,0,0,0.2551,0.2551,0,0.2589,0.2589,0.259,0.2596,0.2596,0.2595,0.2595,0.2601,0.2602,0.2602,0,0,0,0,0,0,0,0,0,0,0,0,0,0.2483,0.2484,0.2551,0.2551,0.2552,0.2589,0.2589,0.259,0.2596,0.2596,0.2595,0.2595,0.2601,0.2602,0.2602,0,0,0,0,0,0,0,0,0,0,0,0,0,0.2514,0.2485,0.255,0.2561,0.2562,0.2589,0.2589,0.259,0.2596,0.2596,0.2595,0.2595,0.2601,0.2601,0.2602,0.261,0,0,0.2603,0.2604,0,0,0,0,0,0,0,0,0.2513,0.2517,0.2559,0.256,0.2562,0.2589,0.2568,0.2596,0.2596,0.2581,0.2595,0.2595,0.2595,0.2596,0.2602,0.2611,0.2611,0.2603,0.2604,0.2604,0.2604,0,0,0,0,0,0,0,0.251,0.2515,0.2564,0.2559,0.2561,0.2564,0.2568,0.2573,0.2587,0.2582,0.2583,0.2591,0.2596,0.2602,0.2602,0.2611,0.2603,0.2604,0.2604,0.2604,0.2661,0.2663,0,0,0,0,0,0,0.251,0.2513,0.2563,0.2565,0.2538,0.2565,0.257,0.2579,0.2588,0.259,0.2591,0.2591,0.2601,0.2602,0.2602,0.2639,0.2604,0.2604,0.2605,0.266,0.2662,0.2663,0,0,0,0,0,0,0.2508,0.2514,0.2561,0.2541,0.2548,0.2567,0.2577,0.258,0.2591,0.2595,0.2596,0.2599,0.2601,0.2602,0.2622,0.2638,0.2605,0.2605,0.2659,0.2661,0.2662,0.2695,0,0,0,0,0,0,0.2506,0.2513,0.2521,0.2541,0.2549,0.2588,0.2578,0.2581,0.2596,0.2596,0.2603,0.2603,0.2601,0.2621,0.2622,0.2638,0.2605,0.2657,0.266,0.2662,0.2693,0.2698,0.2702,0,0,0,0,0,0.2504,0.2519,0.2521,0.2527,0.2559,0.2589,0.2593,0.2604,0.2597,0.261,0.2615,0.2603,0.2636,0.2623,0.2624,0.264,0.2656,0.2659,0.2662,0.269,0.2697,0.2702,0,0,0,0,0,0,0.2499,0.2522,0.2525,0.2547,0.257,0.2591,0.2605,0.2608,0.2623,0.2621,0.2617,0.2619,0.2644,0.264,0.2625,0.2665,0.2645,0.2648,0.2666,0.2672,0.2677,0.2673,0.2606,0,0,0,0,0,0.2501,0.2515,0.2539,0.2559,0.257,0.2586,0.2599,0.2608,0.2623,0.2629,0.2633,0.2641,0.2657,0.2662,0.2674,0.2693,0.2749,0.2705,0.271,0.2715,0.2714,0.281,0.2825,0.2672,0.2672,0.2672,0,0,0.2503,0.2519,0.2527,0.2558,0.2574,0.2594,0.2593,0.2618,0.263,0.2627,0.2645,0.266,0.2667,0.2694,0.2704,0.269,0.28,0.2718,0.2721,0.2718,0.2815,0.283,0.2843,0.2674,0.2674,0.2673,0,0,0.252,0.2532,0.255,0.2569,0.2598,0.2607,0.2615,0.264,0.2646,0.267,0.2673,0.2697,0.2715,0.2727,0.2734,0.2773,0.2825,0.2781,0.2799,0.2893,0.2906,0.2919,0.3064,0.3089,0.278,0.278,0.278,0,0.2527,0.2548,0.2562,0.2586,0.2597,0.2611,0.2631,0.2644,0.2671,0.2685,0.268,0.2736,0.273,0.2773,0.278,0.2782,0.287,0.2773,0.2901,0.2914,0.2926,0.3071,0.3098,0.2782,0.2781,0.2781,0.2781,0,0.256,0.2573,0.2587,0.2614,0.2629,0.2651,0.2667,0.2688,0.2694,0.2711,0.276,0.2774,0.2816,0.2812,0.28,0.288,0.2931,0.2901,0.2886,0.2943,0.3093,0.3121,0.2784,0.2784,0.2783,0.2783,0,0,0.2588,0.2606,0.2609,0.2623,0.2643,0.2665,0.2682,0.2713,0.2759,0.277,0.2837,0.2835,0.2867,0.2877,0.2885,0.2937,0.3097,0.2954,0.2958,0.31,0.3372,0.3346,0.3374,0.3103,0.3107,0.311,0.3463,0,0.2612,0.2642,0.2643,0.2673,0.2691,0.2701,0.2729,0.2757,0.2793,0.2868,0.2877,0.2948,0.2888,0.2942,0.2981,0.3081,0.3164,0.3008,0.3292,0.3301,0.3271,0.34,0.3332,0.3634,0.349,0.3495,0.3498,0,0.2649,0.266,0.268,0.271,0.2723,0.2743,0.2806,0.2838,0.2919,0.2957,0.3016,0.3061,0.3149,0.3089,0.3287,0.3206,0.3289,0.3346,0.3361,0.3334,0.3323,0.3542,0.369,0.3539,0.3541,0.3537,0.3534,0,0.266,0.2692,0.2702,0.2711,0.2748,0.2767,0.2797,0.2866,0.2933,0.3041,0.3139,0.3221,0.3336,0.3415,0.3514,0.3442,0.375,0.3674,0.3734,0.3737,0.3729,0.3722,0.3755,0.3815,0.3814,0.3813,0.3812,0,0.2684,0.2698,0.2715,0.272,0.2786,0.2794,0.2886,0.2934,0.3044,0.3136,0.3206,0.3322,0.3424,0.3591,0.3626,0.3798,0.3861,0.3782,0.3826,0.3742,0.3733,0.3635,0.3572,0.3826,0.3823,0.3821,0.3818,0,0.2708,0.2698,0.2741,0.2774,0.279,0.2851,0.2948,0.3011,0.3126,0.3265,0.3317,0.3494,0.3698,0.3816,0.4006,0.3991,0.4017,0.4144,0.4059,0.4083,0.3924,0.3867,0.3858,0.3744,0.4291,0.4293,0.4294,0,0.2715,0.2732,0.2794,0.281,0.2826,0.2902,0.2939,0.3042,0.3104,0.3339,0.34,0.3671,0.3793,0.4116,0.4179,0.4334,0.4124,0.432,0.411,0.3941,0.3914,0.3704,0.359,0.4167,0.4167,0.4168,0.4168,0,0.2735,0.2765,0.278,0.2832,0.2866,0.2933,0.2986,0.3058,0.3166,0.3311,0.3469,0.3604,0.3935,0.4064,0.4289,0.4331,0.4106,0.4321,0.4176,0.3847,0.3598,0.35,0.3941,0.4168,0.4168,0.4168,0.4168,0.4168,0.2739,0.2774,0.2775,0.2831,0.2858,0.2881,0.2907,0.2968,0.3076,0.3216,0.3415,0.3592,0.3889,0.4192,0.4203,0.4194,0.412,0.408,0.4055,0.3876,0.3639,0.4085,0.4305,0.4305,0.4306,0.4306,0.4307,0,0.2707,0.2717,0.2753,0.2768,0.2759,0.2815,0.2855,0.285,0.29,0.3107,0.3254,0.3576,0.3763,0.3933,0.4085,0.396,0.3732,0.3838,0.3526,0.3445,0.3912,0.3769,0.3843,0.3843,0.3843,0.3843,0.3843,0.3843,0.2667,0.2658,0.2676,0.2627,0.2639,0.2588,0.2591,0.2615,0.2718,0.2876,0.3057,0.329,0.3607,0.3845,0.3798,0.3712,0.3379,0.3289,0.3186,0.3511,0.3528,0.3544,0.3388,0.3381,0.3381,0.2579,0.2574,0.2569]},{"header":{"parameterUnit":"m.s-1","parameterCategory":2,"la1":30.2991,"la2":30.254,"lo1":-89.0895,"lo2":-89.0444,"dy":0.0017,"dx":0.0017,"nx":28,"ny":28,"refTime":"2024-09-01T21:00:00:Z","depth":"0","parameterNumber":3,"parameterNumberName":"V-component_of_CURRENTS"},"data":[0,0,0,0,0,0,0,0,0,0,0,0,0,0,0,0,0,0,0,0,0,0,0,0,0,0,0,0,0,0,0,0,0,0,0,0,0,0,0,0,0,0,0,0,0,0,0,0,0,0,0,0,0,0,0,0,0,0,-0.0012,-0.0013,0,-0.0088,-0.0089,-0.009,-0.0153,-0.0154,-0.0154,-0.0155,-0.0255,-0.0257,-0.0259,0,0,0,0,0,0,0,0,0,0,0,0,0,0.0038,0.0038,-0.0012,-0.0013,-0.0014,-0.0088,-0.0089,-0.009,-0.0153,-0.0154,-0.0155,-0.0155,-0.0254,-0.0257,-0.0259,0,0,0,0,0,0,0,0,0,0,0,0,0,-0.0006,0.0038,-0.0012,-0.0054,-0.0058,-0.0087,-0.0089,-0.009,-0.0153,-0.0154,-0.0155,-0.0156,-0.0254,-0.0257,-0.026,-0.026,0,0,-0.0269,-0.0271,0,0,0,0,0,0,0,0,-0.0003,-0.0008,-0.0047,-0.0051,-0.0056,-0.0111,-0.0108,-0.0148,-0.0153,-0.0118,-0.0155,-0.0156,-0.0208,-0.0215,-0.0228,-0.0265,-0.0269,-0.027,-0.0271,-0.0273,-0.0274,0,0,0,0,0,0,0,0.0,-0.0005,-0.0043,-0.0048,-0.0053,-0.0082,-0.0089,-0.0116,-0.0158,-0.0121,-0.0126,-0.0132,-0.0211,-0.0225,-0.0231,-0.0271,-0.0269,-0.0272,-0.0274,-0.0275,-0.0321,-0.0321,0,0,0,0,0,0,0.0014,-0.0002,-0.0041,-0.0045,-0.003,-0.0082,-0.009,-0.0093,-0.0157,-0.0167,-0.0131,-0.0135,-0.0219,-0.0227,-0.0235,-0.0247,-0.0273,-0.0276,-0.0277,-0.0322,-0.0321,-0.0321,0,0,0,0,0,0,0.0016,0.0012,-0.0037,-0.0025,-0.0033,-0.0081,-0.0085,-0.0094,-0.011,-0.0165,-0.0176,-0.0138,-0.022,-0.023,-0.0262,-0.0252,-0.0277,-0.028,-0.0323,-0.0322,-0.0321,-0.0268,0,0,0,0,0,0,0.0017,0.0013,0.0016,-0.0024,-0.0033,-0.0051,-0.0084,-0.0095,-0.0112,-0.0118,-0.0174,-0.0184,-0.0221,-0.0257,-0.0265,-0.0256,-0.0282,-0.0324,-0.0322,-0.0321,-0.0271,-0.0265,-0.0261,0,0,0,0,0,0.002,0.003,0.0017,0.0012,-0.0027,-0.0051,-0.0058,-0.0097,-0.0112,-0.0115,-0.0156,-0.0183,-0.0254,-0.0259,-0.0268,-0.0261,-0.0324,-0.0323,-0.0321,-0.0273,-0.0266,-0.0261,0,0,0,0,0,0,0.0058,0.0023,0.0008,0.0009,-0.0017,-0.0061,-0.0066,-0.009,-0.0123,-0.0127,-0.018,-0.0193,-0.0217,-0.0242,-0.0245,-0.0269,-0.0291,-0.0291,-0.0251,-0.0245,-0.024,-0.0216,-0.0285,0,0,0,0,0,0.007,0.0066,0.0029,0.0031,0.002,-0.002,-0.0033,-0.0058,-0.0092,-0.0108,-0.0148,-0.0185,-0.0216,-0.0233,-0.0265,-0.0278,-0.0273,-0.0276,-0.0271,-0.0267,-0.0253,-0.0252,-0.0246,-0.0316,-0.0316,-0.0316,0,0,0.0086,0.0068,0.0066,0.0039,0.0017,0.0009,-0.0031,-0.0044,-0.005,-0.0112,-0.0132,-0.0172,-0.0216,-0.0236,-0.0247,-0.0257,-0.0238,-0.0265,-0.0261,-0.0249,-0.025,-0.0243,-0.0237,-0.0315,-0.0315,-0.0315,0,0,0.0123,0.0102,0.0111,0.0092,0.0063,0.0037,0.0036,-0.0005,-0.0024,-0.0047,-0.0092,-0.0127,-0.017,-0.0205,-0.0226,-0.021,-0.0214,-0.0213,-0.017,-0.017,-0.0164,-0.0159,-0.0112,-0.0104,-0.0209,-0.0209,-0.0209,0,0.015,0.0151,0.0112,0.0114,0.0105,0.0054,0.0063,0.0037,-0.0009,-0.0011,-0.0044,-0.0098,-0.0155,-0.0166,-0.0175,-0.02,-0.0179,-0.0191,-0.0162,-0.0158,-0.0153,-0.0107,-0.0098,-0.0206,-0.0207,-0.0207,-0.0207,0,0.0188,0.0188,0.0193,0.0177,0.0161,0.0162,0.012,0.0108,0.0079,0.0055,0.0038,-0.0034,-0.0053,-0.009,-0.0138,-0.013,-0.0116,-0.0158,-0.0175,-0.0143,-0.0096,-0.0088,-0.0202,-0.0203,-0.0204,-0.0205,0,0,0.0267,0.0228,0.0234,0.0244,0.0196,0.0201,0.0185,0.0172,0.0212,0.0136,0.0185,0.0072,0.0053,0.0028,-0.0027,-0.0056,-0.0027,-0.0091,-0.0092,-0.0039,0.0023,0.0014,0.0023,-0.006,-0.0059,-0.0058,0.0055,0,0.0317,0.0338,0.0297,0.0329,0.0339,0.0287,0.0298,0.0279,0.0266,0.0304,0.0218,0.0246,0.0097,0.0124,0.0057,0.001,-0.0006,-0.0051,-0.0021,-0.0019,-0.0028,0.003,0.002,0.0117,0.0063,0.0064,0.0065,0,0.038,0.0385,0.0419,0.0428,0.0433,0.0452,0.0488,0.0494,0.0503,0.0505,0.0482,0.0447,0.04,0.0289,0.0193,0.0181,0.0107,0.0048,0.005,0.0029,-0.0013,0.0068,0.0134,-0.0126,0.0078,0.0077,0.0076,0,0.0474,0.048,0.0517,0.0515,0.0513,0.0545,0.0559,0.057,0.0642,0.0675,0.0769,0.0657,0.0707,0.0542,0.0382,0.0312,0.031,0.0204,0.0131,0.0132,0.0122,0.0119,-0.006,0.0153,0.0153,0.0152,0.0152,0,0.0554,0.0589,0.0583,0.061,0.0716,0.0667,0.0803,0.0805,0.0888,0.1033,0.0915,0.1038,0.0776,0.0732,0.0505,0.0372,0.041,0.0169,0.0159,0.0143,0.0141,-0.009,-0.0216,0.0157,0.0156,0.0155,0.0154,0,0.0674,0.0641,0.0718,0.0744,0.0768,0.0867,0.099,0.1102,0.1153,0.1357,0.14,0.1383,0.1315,0.1055,0.0856,0.061,0.0308,0.0374,0.0393,0.0381,0.0006,-0.0114,-0.0214,-0.0318,0.0303,0.0304,0.0304,0,0.0736,0.0779,0.0861,0.0928,0.0959,0.1086,0.1189,0.1247,0.1385,0.1583,0.1715,0.1732,0.1746,0.1452,0.1029,0.068,0.041,0.0443,0.0258,0.0008,-0.0132,-0.0217,-0.0305,0.0289,0.0289,0.029,0.029,0,0.088,0.0915,0.0984,0.1125,0.1246,0.1393,0.1542,0.1685,0.1799,0.1967,0.2165,0.2199,0.1956,0.1602,0.1134,0.0847,0.0262,0.0435,0.0164,-0.0162,-0.0247,-0.0358,0.0219,0.0291,0.0291,0.0291,0.0291,0.0291,0.1014,0.1111,0.1196,0.1336,0.1477,0.1658,0.179,0.1958,0.2184,0.2407,0.245,0.2511,0.2024,0.1372,0.1012,0.0282,0.0293,0.0007,-0.0106,-0.016,-0.0317,0.0284,0.0334,0.0334,0.0334,0.0334,0.0334,0,0.1157,0.1236,0.138,0.1539,0.1704,0.1747,0.1989,0.2118,0.2359,0.2558,0.2686,0.2438,0.184,0.1202,0.0272,-0.0202,-0.0396,-0.0472,-0.0638,-0.0698,-0.0174,-0.024,-0.0296,-0.0296,-0.0296,-0.0295,-0.0295,-0.0295,0.1233,0.1377,0.1435,0.1688,0.1802,0.2015,0.2143,0.2339,0.249,0.266,0.2665,0.265,0.2099,0.0554,-0.0545,-0.0795,-0.1128,-0.114,-0.1313,-0.1033,-0.1,-0.0968,-0.1067,-0.1295,-0.1296,-0.1808,-0.1813,-0.1817]}],[{"header":{"parameterUnit":"m.s-1","parameterCategory":2,"la1":30.2991,"la2":30.254,"lo1":-89.0895,"lo2":-89.0444,"dy":0.0017,"dx":0.0017,"nx":28,"ny":28,"refTime":"2024-09-01T21:00:00:Z","depth":"2","parameterNumber":2,"parameterNumberName":"U-component_of_CURRENTS"},"data":[0,0,0,0,0,0,0,0,0,0,0,0,0,0,0,0,0,0,0,0,0,0,0,0,0,0,0,0,0,0,0,0,0,0,0,0,0,0,0,0,0,0,0,0,0,0,0,0,0,0,0,0,0,0,0,0,0,0,0.2231,0.2232,0,0.229,0.229,0.229,0.2305,0.2305,0.2305,0.2306,0.2331,0.2332,0.2332,0,0,0,0,0,0,0,0,0,0,0,0,0,0.2175,0.2175,0.2231,0.2233,0.2234,0.229,0.229,0.2291,0.2305,0.2305,0.2306,0.2306,0.2331,0.2332,0.2332,0,0,0,0,0,0,0,0,0,0,0,0,0,0.2208,0.2176,0.2231,0.2252,0.2255,0.229,0.229,0.2291,0.2305,0.2305,0.2306,0.2306,0.2331,0.2332,0.2332,0.2334,0,0,0.2335,0.2335,0,0,0,0,0,0,0,0,0.2206,0.2209,0.2248,0.2251,0.2254,0.2295,0.228,0.2305,0.2305,0.228,0.2306,0.2306,0.232,0.2321,0.2325,0.2335,0.2336,0.2335,0.2336,0.2336,0.2336,0,0,0,0,0,0,0,0.2204,0.2207,0.2249,0.2249,0.2253,0.2274,0.2277,0.2285,0.2293,0.2282,0.2285,0.23,0.232,0.2324,0.2325,0.2336,0.2335,0.2336,0.2336,0.2337,0.2403,0.2404,0,0,0,0,0,0,0.2205,0.2205,0.2247,0.2251,0.2236,0.2275,0.2279,0.2277,0.2294,0.2299,0.23,0.2301,0.2322,0.2324,0.2326,0.2409,0.2336,0.2337,0.2337,0.2401,0.2403,0.2404,0,0,0,0,0,0,0.2203,0.2207,0.2245,0.2235,0.2242,0.2276,0.2274,0.2279,0.2296,0.2309,0.2312,0.2315,0.2322,0.2325,0.2347,0.2407,0.2337,0.2338,0.24,0.2402,0.2404,0.2522,0,0,0,0,0,0,0.2201,0.2206,0.2208,0.2234,0.2243,0.2272,0.2275,0.228,0.2307,0.2308,0.2322,0.2324,0.2323,0.2346,0.2348,0.2407,0.2339,0.2398,0.2401,0.2403,0.2517,0.2528,0.2537,0,0,0,0,0,0.2198,0.2206,0.2207,0.2213,0.2243,0.2273,0.2278,0.23,0.2307,0.2315,0.2329,0.2324,0.2362,0.2347,0.2349,0.241,0.2397,0.24,0.2403,0.2512,0.2526,0.2537,0,0,0,0,0,0,0.2183,0.221,0.2211,0.2225,0.2249,0.2277,0.2303,0.2308,0.2324,0.2333,0.2334,0.2337,0.2381,0.2367,0.235,0.2432,0.2381,0.2385,0.2464,0.2476,0.2486,0.2466,0.2339,0,0,0,0,0,0.2181,0.2193,0.2218,0.2231,0.2251,0.2276,0.2294,0.2304,0.2325,0.2333,0.2349,0.2366,0.2392,0.241,0.2418,0.246,0.2458,0.2499,0.251,0.2519,0.2502,0.2545,0.2559,0.2413,0.2413,0.2413,0,0,0.2177,0.2198,0.2202,0.2229,0.2258,0.2286,0.2287,0.2322,0.2356,0.2334,0.2391,0.2399,0.2406,0.2459,0.2478,0.246,0.2568,0.2522,0.2531,0.2508,0.255,0.2564,0.2577,0.2415,0.2415,0.2415,0,0,0.2191,0.2201,0.2222,0.2244,0.2288,0.2304,0.2316,0.2354,0.2387,0.2435,0.2434,0.2463,0.2511,0.2524,0.254,0.2604,0.2614,0.2626,0.2677,0.2721,0.2734,0.2745,0.2803,0.2818,0.2641,0.2641,0.2641,0,0.2191,0.2213,0.2233,0.2265,0.2293,0.2315,0.2346,0.2385,0.2423,0.2455,0.2469,0.2531,0.2542,0.2594,0.2631,0.263,0.2663,0.2638,0.2737,0.2747,0.2756,0.2813,0.2828,0.2647,0.2646,0.2646,0.2645,0,0.2224,0.2241,0.2266,0.2307,0.2334,0.2369,0.242,0.2462,0.251,0.254,0.261,0.2628,0.2655,0.2689,0.2692,0.2764,0.2772,0.2744,0.2711,0.2779,0.2834,0.2848,0.2656,0.2654,0.2652,0.265,0,0,0.223,0.2277,0.2287,0.2307,0.2361,0.2386,0.2461,0.2524,0.2575,0.2633,0.2703,0.2758,0.2755,0.2767,0.2774,0.2826,0.2946,0.283,0.2829,0.2897,0.3076,0.3004,0.3012,0.2955,0.2957,0.2958,0.3106,0,0.2256,0.2315,0.2327,0.2375,0.2415,0.245,0.2515,0.2572,0.2637,0.271,0.2754,0.282,0.2793,0.2833,0.287,0.2928,0.298,0.2909,0.2988,0.299,0.2927,0.3023,0.2794,0.2898,0.3118,0.3121,0.3122,0,0.2306,0.2329,0.2397,0.2425,0.2446,0.2484,0.258,0.2622,0.2719,0.2778,0.2827,0.2863,0.2944,0.2918,0.3025,0.2993,0.3033,0.3073,0.3079,0.2967,0.2942,0.2855,0.2913,0.3144,0.3142,0.3141,0.3139,0,0.2353,0.2379,0.2437,0.2454,0.25,0.2551,0.2574,0.2662,0.2745,0.2826,0.2911,0.2952,0.3042,0.3074,0.3143,0.3114,0.3267,0.323,0.3194,0.3191,0.2979,0.2952,0.3291,0.3291,0.329,0.329,0.3289,0,0.2404,0.2431,0.2469,0.2509,0.2569,0.258,0.2677,0.271,0.282,0.2899,0.294,0.3038,0.3097,0.3186,0.3192,0.3243,0.3302,0.3215,0.3223,0.3017,0.2994,0.317,0.3153,0.3295,0.3294,0.3293,0.3292,0,0.2451,0.2486,0.2538,0.2587,0.2615,0.2658,0.2765,0.2812,0.291,0.3025,0.3077,0.3194,0.3272,0.3303,0.3391,0.3339,0.337,0.3362,0.3124,0.3099,0.3256,0.3245,0.3352,0.335,0.3349,0.3348,0.3347,0,0.2482,0.2528,0.2607,0.2636,0.2665,0.2737,0.2784,0.2876,0.2933,0.3105,0.3156,0.3305,0.3306,0.3403,0.3366,0.3352,0.3391,0.3144,0.3014,0.3265,0.3263,0.3253,0.3243,0.2812,0.2806,0.2802,0.2799,0,0.2499,0.2549,0.257,0.2651,0.2711,0.2766,0.2837,0.2916,0.2992,0.3077,0.3161,0.3187,0.3279,0.3154,0.3156,0.3113,0.3115,0.3058,0.3403,0.2816,0.2763,0.2759,0.2765,0.2762,0.2766,0.2768,0.277,0.2772,0.2488,0.2501,0.2548,0.2599,0.267,0.2713,0.2724,0.2764,0.2819,0.2834,0.3003,0.2936,0.298,0.2843,0.2771,0.2755,0.2944,0.2814,0.2824,0.2839,0.2735,0.268,0.2647,0.265,0.2652,0.2654,0.2656,0,0.2408,0.2425,0.2473,0.2519,0.2537,0.2631,0.2679,0.2597,0.2535,0.2628,0.2629,0.2412,0.2348,0.2413,0.2333,0.2336,0.2282,0.2249,0.2161,0.2202,0.2237,0.2097,0.1843,0.184,0.1837,0.1834,0,0,0.2357,0.2333,0.2344,0.2339,0.2396,0.2359,0.2353,0.2226,0.223,0.2087,0.2087,0.2243,0.2362,0.2067,0.2041,0.194,0.205,0.187,0.2534,0.2475,0.2506,0.2587,0.2421,0,0,0,0,0]},{"header":{"parameterUnit":"m.s-1","parameterCategory":2,"la1":30.2991,"la2":30.254,"lo1":-89.0895,"lo2":-89.0444,"dy":0.0017,"dx":0.0017,"nx":28,"ny":28,"refTime":"2024-09-01T21:00:00:Z","depth":"2","parameterNumber":3,"parameterNumberName":"V-component_of_CURRENTS"},"data":[0,0,0,0,0,0,0,0,0,0,0,0,0,0,0,0,0,0,0,0,0,0,0,0,0,0,0,0,0,0,0,0,0,0,0,0,0,0,0,0,0,0,0,0,0,0,0,0,0,0,0,0,0,0,0,0,0,0,-0.005,-0.0051,0,-0.0116,-0.0116,-0.0117,-0.0168,-0.0168,-0.0168,-0.0169,-0.0264,-0.0266,-0.0268,0,0,0,0,0,0,0,0,0,0,0,0,0,-0.0032,-0.0032,-0.005,-0.0051,-0.0052,-0.0116,-0.0117,-0.0117,-0.0167,-0.0168,-0.0168,-0.0169,-0.0263,-0.0266,-0.0268,0,0,0,0,0,0,0,0,0,0,0,0,0,-0.0063,-0.0032,-0.005,-0.0084,-0.0087,-0.0115,-0.0117,-0.0118,-0.0167,-0.0168,-0.0169,-0.0169,-0.0262,-0.0265,-0.0269,-0.0277,0,0,-0.0279,-0.028,0,0,0,0,0,0,0,0,-0.0062,-0.0064,-0.0078,-0.0081,-0.0086,-0.0133,-0.0145,-0.0172,-0.0167,-0.0138,-0.0169,-0.0169,-0.0222,-0.0229,-0.024,-0.0281,-0.0285,-0.0279,-0.0281,-0.0282,-0.0283,0,0,0,0,0,0,0,-0.0059,-0.0062,-0.0077,-0.0079,-0.0083,-0.0117,-0.0122,-0.0151,-0.0177,-0.014,-0.0144,-0.015,-0.0225,-0.0237,-0.0243,-0.0287,-0.0279,-0.0282,-0.0284,-0.0285,-0.0346,-0.0345,0,0,0,0,0,0,-0.0045,-0.0059,-0.0075,-0.0079,-0.0074,-0.0117,-0.0122,-0.0118,-0.0176,-0.0185,-0.0149,-0.0152,-0.0231,-0.0239,-0.0247,-0.0271,-0.0282,-0.0285,-0.0287,-0.0346,-0.0345,-0.0345,0,0,0,0,0,0,-0.0045,-0.0046,-0.0072,-0.0071,-0.0077,-0.0116,-0.0111,-0.0119,-0.0133,-0.0182,-0.0192,-0.0156,-0.0232,-0.0242,-0.0271,-0.0275,-0.0287,-0.029,-0.0346,-0.0346,-0.0345,-0.0313,0,0,0,0,0,0,-0.0044,-0.0045,-0.004,-0.0069,-0.0076,-0.008,-0.0111,-0.012,-0.0136,-0.014,-0.0191,-0.0201,-0.0233,-0.0266,-0.0274,-0.0279,-0.0292,-0.0347,-0.0346,-0.0345,-0.0314,-0.0311,-0.0309,0,0,0,0,0,-0.0043,-0.0031,-0.0039,-0.0041,-0.0067,-0.0079,-0.0085,-0.0117,-0.0135,-0.0134,-0.0173,-0.0199,-0.0268,-0.0268,-0.0278,-0.0284,-0.0347,-0.0346,-0.0346,-0.0316,-0.0312,-0.0309,0,0,0,0,0,0,-0.0026,-0.0036,-0.0045,-0.0039,-0.0053,-0.0087,-0.0094,-0.0112,-0.0142,-0.015,-0.0197,-0.0209,-0.0235,-0.0259,-0.0258,-0.0298,-0.0311,-0.0312,-0.0285,-0.0281,-0.0279,-0.0248,-0.0295,0,0,0,0,0,-0.0016,-0.0007,-0.0027,-0.0021,-0.0028,-0.006,-0.0071,-0.0087,-0.0117,-0.0131,-0.017,-0.0208,-0.0239,-0.0259,-0.0288,-0.031,-0.0324,-0.0319,-0.0316,-0.0314,-0.0294,-0.0318,-0.0316,-0.0343,-0.0343,-0.0343,0,0,-0.001,-0.0013,-0.001,-0.0016,-0.0035,-0.0034,-0.0068,-0.0078,-0.0084,-0.0136,-0.0162,-0.0198,-0.0241,-0.0267,-0.0281,-0.029,-0.0315,-0.0313,-0.0311,-0.0292,-0.0317,-0.0315,-0.0312,-0.0342,-0.0342,-0.0342,0,0,0.0011,0.0006,0.002,0.0015,0.0,-0.0016,-0.0015,-0.0046,-0.0068,-0.0093,-0.0133,-0.0164,-0.0217,-0.0246,-0.0268,-0.0263,-0.0297,-0.0279,-0.0246,-0.027,-0.0268,-0.0266,-0.0288,-0.0288,-0.0281,-0.0281,-0.0281,0,0.0017,0.0035,0.002,0.0032,0.003,-0.0003,0.0008,-0.0015,-0.0053,-0.0062,-0.0094,-0.0155,-0.0204,-0.0223,-0.0232,-0.0257,-0.0274,-0.0259,-0.0266,-0.0264,-0.0263,-0.0286,-0.0287,-0.0279,-0.0279,-0.0279,-0.028,0,0.0047,0.0061,0.0067,0.0076,0.0073,0.0077,0.0051,0.004,0.0006,-0.0016,-0.0045,-0.0107,-0.0134,-0.0169,-0.0208,-0.022,-0.0237,-0.0258,-0.0274,-0.0258,-0.0284,-0.0285,-0.0277,-0.0277,-0.0278,-0.0278,0,0,0.0055,0.0084,0.0086,0.0101,0.0097,0.01,0.0096,0.0088,0.0097,0.0043,0.0049,-0.0031,-0.0053,-0.0077,-0.0129,-0.0167,-0.0197,-0.0211,-0.0213,-0.0229,-0.0248,-0.0288,-0.0294,-0.0223,-0.0223,-0.0223,-0.0272,0,0.0078,0.0119,0.0125,0.0157,0.0169,0.0156,0.0163,0.0155,0.013,0.0129,0.0068,0.0057,-0.0021,-0.0029,-0.0081,-0.0161,-0.0197,-0.0181,-0.0261,-0.0263,-0.0299,-0.0295,-0.0264,-0.0308,-0.0274,-0.0274,-0.0275,0,0.0096,0.0124,0.0167,0.0205,0.0211,0.0234,0.0252,0.0255,0.0248,0.0234,0.0215,0.0177,0.0126,0.0058,-0.0062,-0.0049,-0.0138,-0.021,-0.0214,-0.0257,-0.0305,-0.0316,-0.0312,-0.0277,-0.0277,-0.0277,-0.0277,0,0.0104,0.0148,0.0189,0.0201,0.0241,0.0266,0.0286,0.0292,0.0322,0.0319,0.0348,0.0276,0.0264,0.0139,-0.002,-0.0036,-0.0156,-0.0193,-0.0308,-0.0312,-0.0302,-0.0305,-0.0265,-0.0265,-0.0265,-0.0265,-0.0265,0,0.0116,0.0146,0.0205,0.0231,0.0293,0.0303,0.0371,0.0379,0.0425,0.0472,0.0418,0.0443,0.0284,0.0193,0.0028,-0.0144,-0.0117,-0.0292,-0.0324,-0.0292,-0.0293,-0.0277,-0.0278,-0.0267,-0.0266,-0.0266,-0.0266,0,0.0107,0.0146,0.0204,0.0273,0.0306,0.0348,0.0454,0.0499,0.0535,0.0599,0.0615,0.0588,0.0461,0.0283,0.0086,-0.0062,-0.0237,-0.0304,-0.0256,-0.0283,-0.0387,-0.0386,-0.0425,-0.0427,-0.0429,-0.043,-0.0431,0,0.0108,0.0138,0.0244,0.0295,0.0335,0.0414,0.0477,0.0548,0.06,0.0676,0.0706,0.0653,0.0585,0.0301,0.0043,-0.0226,-0.0256,-0.0361,-0.0393,-0.0375,-0.0402,-0.0399,-0.0395,-0.0369,-0.0369,-0.037,-0.037,0,0.0106,0.0149,0.0199,0.0306,0.0391,0.0485,0.0575,0.0643,0.071,0.079,0.0841,0.0811,0.0572,0.0328,-0.0015,-0.0199,-0.0321,-0.0379,-0.0359,-0.0339,-0.0328,-0.0353,-0.035,-0.0373,-0.0373,-0.0373,-0.0372,-0.0372,0.0109,0.0137,0.0213,0.0306,0.0411,0.0509,0.0591,0.0687,0.0796,0.091,0.0897,0.0903,0.0644,0.0227,-0.0077,-0.0359,-0.0362,-0.0456,-0.0452,-0.0449,-0.0439,-0.0432,-0.0495,-0.0495,-0.0495,-0.0496,-0.0496,0,0.0095,0.0131,0.0209,0.0321,0.0419,0.0493,0.0628,0.0728,0.0853,0.0966,0.1034,0.0831,0.0561,0.0279,-0.0143,-0.043,-0.044,-0.0506,-0.0447,-0.0442,-0.0438,-0.0426,-0.048,-0.048,-0.0481,-0.0481,0,0,0.009,0.0129,0.0158,0.0288,0.0391,0.0544,0.0629,0.0796,0.0924,0.104,0.1098,0.1074,0.0703,0.0408,0.002,-0.0215,-0.0262,-0.0267,-0.0253,-0.0134,-0.0127,-0.0389,-0.0363,0,0,0,0,0]}],[{"header":{"parameterUnit":"m.s-1","parameterCategory":2,"la1":30.2991,"la2":30.254,"lo1":-89.0895,"lo2":-89.0444,"dy":0.0017,"dx":0.0017,"nx":28,"ny":28,"refTime":"2024-09-01T21:00:00:Z","depth":"4","parameterNumber":2,"parameterNumberName":"U-component_of_CURRENTS"},"data":[0,0,0,0,0,0,0,0,0,0,0,0,0,0,0,0,0,0,0,0,0,0,0,0,0,0,0,0,0,0,0,0,0,0,0,0,0,0,0,0,0,0,0,0,0,0,0,0,0,0,0,0,0,0,0,0,0,0,0.1207,0.1208,0,0.1285,0.1286,0.1287,0.1348,0.1349,0.135,0.1351,0.142,0.1421,0.1422,0,0,0,0,0,0,0,0,0,0,0,0,0,0.1128,0.1129,0.1207,0.1208,0.1209,0.1285,0.1286,0.1287,0.1348,0.1349,0.135,0.1351,0.142,0.1421,0.1422,0,0,0,0,0,0,0,0,0,0,0,0,0,0.1179,0.113,0.1207,0.125,0.1255,0.1285,0.1286,0.1287,0.1348,0.1349,0.135,0.1351,0.1419,0.1421,0.1423,0.1411,0,0,0.1428,0.1429,0,0,0,0,0,0,0,0,0.1176,0.1181,0.1243,0.1247,0.1253,0.1309,0.1284,0.1329,0.1348,0.1311,0.1351,0.1352,0.1382,0.1387,0.1397,0.1414,0.1417,0.1428,0.1429,0.143,0.143,0,0,0,0,0,0,0,0.1172,0.1178,0.1236,0.1244,0.125,0.1272,0.128,0.1293,0.1338,0.1314,0.1319,0.133,0.1385,0.1396,0.1399,0.1418,0.1428,0.143,0.1431,0.1431,0.1543,0.1545,0,0,0,0,0,0,0.1163,0.1175,0.1234,0.1239,0.1218,0.1272,0.1281,0.1289,0.1338,0.1348,0.1329,0.1333,0.1392,0.1397,0.1402,0.1478,0.143,0.1431,0.1432,0.1541,0.1543,0.1546,0,0,0,0,0,0,0.1161,0.1168,0.1231,0.121,0.122,0.1272,0.1281,0.129,0.1334,0.135,0.1359,0.1367,0.1393,0.14,0.1447,0.1477,0.1432,0.1434,0.1539,0.1542,0.1545,0.1573,0,0,0,0,0,0,0.1159,0.1166,0.1183,0.1209,0.1221,0.1269,0.128,0.1291,0.1337,0.1343,0.1385,0.1391,0.1395,0.1444,0.1448,0.1479,0.1435,0.1536,0.154,0.1544,0.1569,0.1576,0.1582,0,0,0,0,0,0.1155,0.1168,0.1184,0.1192,0.1238,0.127,0.1278,0.1318,0.1338,0.1361,0.1394,0.1391,0.1471,0.1447,0.1451,0.1483,0.1535,0.1539,0.1543,0.1567,0.1575,0.1582,0,0,0,0,0,0,0.1143,0.1176,0.1194,0.1217,0.1252,0.1281,0.1308,0.1334,0.1378,0.1395,0.1408,0.1416,0.1472,0.1476,0.1449,0.153,0.1505,0.1511,0.1521,0.1529,0.1536,0.1548,0.1437,0,0,0,0,0,0.1147,0.1168,0.1201,0.1225,0.1242,0.1281,0.1305,0.1335,0.137,0.1393,0.1416,0.1451,0.1487,0.1508,0.1535,0.157,0.1586,0.1598,0.1605,0.161,0.1626,0.1678,0.169,0.156,0.156,0.156,0,0,0.1149,0.1171,0.1185,0.1225,0.1254,0.1282,0.1299,0.1346,0.1379,0.1391,0.1444,0.1474,0.1504,0.1551,0.1576,0.156,0.1655,0.1615,0.1619,0.1633,0.1683,0.1696,0.1707,0.1563,0.1562,0.1562,0,0,0.1155,0.1184,0.1203,0.1232,0.1284,0.1307,0.1327,0.1371,0.1405,0.1457,0.148,0.1531,0.1576,0.1603,0.1623,0.1682,0.1689,0.1697,0.1735,0.1785,0.1796,0.1805,0.1835,0.1848,0.1697,0.1697,0.1697,0,0.1161,0.1186,0.1216,0.1242,0.127,0.1319,0.1348,0.1384,0.1442,0.1477,0.1484,0.1587,0.1602,0.1671,0.1695,0.1696,0.1723,0.1697,0.1792,0.1802,0.1812,0.184,0.1853,0.1699,0.1699,0.1698,0.1698,0,0.1171,0.1206,0.1221,0.1267,0.1301,0.1337,0.1384,0.1434,0.1482,0.152,0.161,0.1643,0.171,0.172,0.1726,0.1808,0.1805,0.1793,0.1767,0.1826,0.1852,0.1866,0.1702,0.1701,0.17,0.17,0,0,0.1139,0.1214,0.1223,0.1253,0.1321,0.1346,0.1411,0.1481,0.1541,0.1602,0.168,0.1743,0.1782,0.1809,0.1828,0.1867,0.1945,0.1865,0.1867,0.1885,0.2056,0.1929,0.193,0.1955,0.1958,0.196,0.2044,0,0.1143,0.1192,0.1233,0.1288,0.1313,0.1383,0.144,0.1515,0.1586,0.167,0.1734,0.1815,0.1809,0.186,0.1901,0.1943,0.1984,0.1924,0.2006,0.2008,0.1879,0.1943,0.1969,0.2054,0.2057,0.2059,0.2061,0,0.1124,0.1167,0.1216,0.1306,0.1327,0.1379,0.1489,0.155,0.1676,0.1739,0.1837,0.189,0.1981,0.1961,0.2066,0.2034,0.2058,0.2074,0.2078,0.196,0.1905,0.1987,0.2084,0.2082,0.2081,0.2079,0.2078,0,0.1061,0.115,0.1191,0.1217,0.1324,0.1384,0.1462,0.1583,0.1647,0.1801,0.1871,0.198,0.206,0.2109,0.2155,0.2128,0.2256,0.2214,0.2119,0.211,0.2185,0.2174,0.229,0.229,0.229,0.229,0.2289,0,0.102,0.1054,0.1178,0.1197,0.1274,0.1368,0.1468,0.1567,0.1709,0.1791,0.1913,0.1989,0.2108,0.2186,0.2199,0.2204,0.2296,0.2143,0.2131,0.2194,0.2183,0.2193,0.2181,0.2293,0.2292,0.2291,0.2291,0,0.0921,0.1001,0.1043,0.1179,0.124,0.1289,0.1463,0.1534,0.1689,0.1805,0.1862,0.2033,0.2136,0.2219,0.2315,0.2255,0.227,0.2249,0.2325,0.2313,0.2077,0.2066,0.214,0.2136,0.2133,0.213,0.2128,0,0.0873,0.0887,0.1011,0.1055,0.1125,0.1238,0.1327,0.1504,0.1582,0.1803,0.1847,0.2017,0.2109,0.2146,0.2237,0.2268,0.224,0.2233,0.2137,0.2085,0.2066,0.206,0.2052,0.2123,0.2123,0.2122,0.2121,0,0.0762,0.0804,0.0843,0.0962,0.1053,0.113,0.1281,0.1328,0.1531,0.1677,0.1796,0.1873,0.1994,0.2069,0.213,0.2135,0.2224,0.22,0.2205,0.2115,0.2066,0.2049,0.2046,0.211,0.2112,0.2113,0.2113,0,0.068,0.0676,0.0759,0.0849,0.0942,0.1013,0.1103,0.1234,0.1337,0.1594,0.1627,0.181,0.1972,0.2002,0.2044,0.206,0.2014,0.1934,0.1951,0.1964,0.1868,0.1778,0.1739,0,0,0,0,0,0.0606,0.0613,0.0671,0.0756,0.0837,0.0915,0.107,0.1169,0.1369,0.1409,0.152,0.1623,0.1726,0.1819,0.1799,0.195,0.2008,0.1916,0.1919,0.2051,0.2063,0.1966,0,0,0,0,0,0,0.0563,0.0592,0.0626,0.0656,0.071,0.0808,0.0896,0.1038,0.108,0.1286,0.1352,0.1507,0.1629,0.1713,0.176,0.1787,0.1753,0.2031,0.2027,0.2044,0.2055,0.2065,0.197,0,0,0,0,0]},{"header":{"parameterUnit":"m.s-1","parameterCategory":2,"la1":30.2991,"la2":30.254,"lo1":-89.0895,"lo2":-89.0444,"dy":0.0017,"dx":0.0017,"nx":28,"ny":28,"refTime":"2024-09-01T21:00:00:Z","depth":"4","parameterNumber":3,"parameterNumberName":"V-component_of_CURRENTS"},"data":[0,0,0,0,0,0,0,0,0,0,0,0,0,0,0,0,0,0,0,0,0,0,0,0,0,0,0,0,0,0,0,0,0,0,0,0,0,0,0,0,0,0,0,0,0,0,0,0,0,0,0,0,0,0,0,0,0,0,0.0098,0.0098,0,0.006,0.0059,0.0059,0.0034,0.0034,0.0034,0.0034,-0.0024,-0.0025,-0.0027,0,0,0,0,0,0,0,0,0,0,0,0,0,0.01,0.01,0.0098,0.0098,0.0097,0.006,0.0059,0.0059,0.0034,0.0034,0.0034,0.0034,-0.0023,-0.0025,-0.0027,0,0,0,0,0,0,0,0,0,0,0,0,0,0.0084,0.01,0.0098,0.0081,0.0079,0.006,0.0059,0.0058,0.0034,0.0034,0.0034,0.0033,-0.0023,-0.0025,-0.0027,-0.0036,0,0,-0.0033,-0.0034,0,0,0,0,0,0,0,0,0.0085,0.0084,0.0084,0.0082,0.008,0.0052,0.0038,0.0026,0.0034,0.0051,0.0034,0.0033,-0.0,-0.0004,-0.0011,-0.0039,-0.0041,-0.0034,-0.0035,-0.0036,-0.0036,0,0,0,0,0,0,0,0.0086,0.0085,0.0083,0.0083,0.0081,0.0057,0.0055,0.0036,0.0026,0.0049,0.0047,0.0044,-0.0001,-0.0009,-0.0013,-0.0042,-0.0034,-0.0035,-0.0037,-0.0038,-0.0088,-0.0088,0,0,0,0,0,0,0.0094,0.0086,0.0084,0.0082,0.0082,0.0058,0.0055,0.0061,0.0027,0.0022,0.0044,0.0043,-0.0005,-0.001,-0.0015,-0.0016,-0.0036,-0.0038,-0.0039,-0.0088,-0.0088,-0.0088,0,0,0,0,0,0,0.0095,0.0095,0.0086,0.0082,0.008,0.0058,0.0064,0.006,0.0052,0.0023,0.0017,0.004,-0.0006,-0.0012,-0.0029,-0.0019,-0.0039,-0.0041,-0.0088,-0.0088,-0.0088,-0.0025,0,0,0,0,0,0,0.0095,0.0095,0.0099,0.0084,0.008,0.0082,0.0064,0.0059,0.005,0.0048,0.0018,0.0013,-0.0006,-0.0026,-0.0031,-0.0022,-0.0042,-0.0087,-0.0088,-0.0088,-0.0027,-0.0023,-0.002,0,0,0,0,0,0.0095,0.0105,0.01,0.0099,0.0088,0.0082,0.0079,0.0062,0.005,0.0053,0.003,0.0014,-0.003,-0.0027,-0.0034,-0.0025,-0.0087,-0.0088,-0.0088,-0.0029,-0.0024,-0.002,0,0,0,0,0,0,0.0101,0.0103,0.0097,0.0105,0.0097,0.0078,0.0077,0.0064,0.0047,0.0044,0.0014,0.0008,-0.0006,-0.0027,-0.0023,-0.0042,-0.0062,-0.0064,-0.0016,-0.0011,-0.0008,0.0002,-0.0044,0,0,0,0,0,0.0106,0.0119,0.011,0.0115,0.0113,0.0095,0.0088,0.0079,0.0063,0.0056,0.0034,0.0009,-0.0012,-0.002,-0.0043,-0.005,-0.0089,-0.0051,-0.0047,-0.0043,-0.0041,-0.0093,-0.0094,-0.0088,-0.0088,-0.0088,0,0,0.0106,0.0111,0.0116,0.0118,0.0109,0.0115,0.0091,0.0088,0.0095,0.0052,0.0051,0.0019,-0.0013,-0.0022,-0.0029,-0.0035,-0.0067,-0.0044,-0.004,-0.004,-0.0094,-0.0094,-0.0095,-0.0088,-0.0088,-0.0088,0,0,0.0119,0.0122,0.0137,0.0139,0.0136,0.0128,0.0129,0.0115,0.0112,0.0108,0.0074,0.0049,0.0025,0.0002,-0.0012,-0.0004,-0.0049,-0.0012,0.0022,-0.0028,-0.0029,-0.003,-0.0081,-0.0088,-0.0005,-0.0004,-0.0004,0,0.0116,0.0138,0.0137,0.0153,0.0157,0.0138,0.015,0.0148,0.013,0.0125,0.0117,0.0063,0.0038,0.0017,0.0023,0.0006,-0.0033,0.0012,-0.0022,-0.0024,-0.0027,-0.0079,-0.0087,-0.0001,-0.0002,-0.0002,-0.0002,0,0.0141,0.0157,0.0166,0.0185,0.0191,0.0197,0.0198,0.02,0.0191,0.0179,0.0158,0.012,0.0084,0.0076,0.0057,0.0029,0.0003,-0.0014,-0.003,-0.0023,-0.0079,-0.0088,0.0003,0.0002,0.0001,0.0,0,0,0.013,0.0175,0.0177,0.0192,0.0209,0.0214,0.0235,0.0236,0.0235,0.0223,0.021,0.0182,0.0148,0.0128,0.0092,0.0059,0.0013,0.0024,0.002,-0.0019,-0.0104,-0.0099,-0.0109,-0.0011,-0.0012,-0.0013,-0.0137,0,0.0142,0.0183,0.0203,0.0233,0.025,0.0256,0.0274,0.0277,0.0266,0.0251,0.0218,0.0188,0.0173,0.0147,0.0115,0.003,-0.0009,0.0047,-0.0111,-0.0116,-0.0106,-0.0118,-0.0017,-0.0144,-0.0146,-0.0148,-0.0149,0,0.0151,0.0182,0.022,0.0259,0.0266,0.0282,0.0296,0.0311,0.0295,0.0284,0.0256,0.0217,0.0169,0.015,0.0031,0.0066,-0.0011,-0.007,-0.0077,-0.01,-0.0127,-0.0154,-0.0166,-0.0165,-0.0163,-0.0162,-0.0161,0,0.0139,0.0187,0.022,0.0235,0.0278,0.0294,0.0311,0.0313,0.0321,0.0293,0.0274,0.022,0.0173,0.0088,-0.0016,-0.0004,-0.0158,-0.0164,-0.0231,-0.0232,-0.0227,-0.0225,-0.0254,-0.0254,-0.0254,-0.0253,-0.0253,0,0.0143,0.0167,0.0217,0.0236,0.0268,0.0296,0.0315,0.0324,0.0322,0.0324,0.0282,0.0255,0.0154,0.0063,-0.0026,-0.0154,-0.017,-0.0231,-0.0264,-0.0199,-0.0192,-0.0234,-0.023,-0.0258,-0.0257,-0.0256,-0.0255,0,0.0132,0.0164,0.0205,0.0254,0.0265,0.0291,0.0328,0.034,0.0333,0.033,0.0321,0.0259,0.0152,0.0042,-0.0113,-0.0174,-0.0295,-0.0339,-0.0266,-0.0292,-0.0335,-0.0327,-0.0428,-0.0429,-0.043,-0.043,-0.0431,0,0.0134,0.0155,0.0212,0.0237,0.0262,0.0298,0.0323,0.0344,0.036,0.0337,0.0335,0.0235,0.0185,-0.0018,-0.0142,-0.0319,-0.0336,-0.0406,-0.0357,-0.0331,-0.0353,-0.0343,-0.0334,-0.0432,-0.0432,-0.0432,-0.0432,0,0.0143,0.0164,0.0201,0.0248,0.0282,0.0324,0.0361,0.0374,0.04,0.0375,0.0356,0.0262,0.0135,-0.0003,-0.0149,-0.0272,-0.036,-0.0414,-0.0413,-0.0367,-0.0337,-0.0356,-0.0346,-0.0435,-0.0434,-0.0434,-0.0434,0,0.0147,0.0175,0.0224,0.0266,0.0314,0.0365,0.0374,0.0405,0.0422,0.0409,0.0396,0.0276,0.0202,0.0017,-0.0116,-0.0237,-0.0261,-0.0288,-0.0294,-0.0293,-0.0208,-0.0147,-0.0218,0,0,0,0,0,0.0157,0.0197,0.0238,0.0301,0.0351,0.0381,0.0416,0.0423,0.0433,0.0437,0.0429,0.0327,0.0145,0.0055,-0.0062,-0.0149,-0.0302,-0.0293,-0.034,-0.0449,-0.0446,-0.0366,0,0,0,0,0,0,0.0168,0.0215,0.0246,0.0333,0.0375,0.0435,0.0464,0.0461,0.0468,0.0455,0.0366,0.0305,0.0125,0.0227,-0.0056,-0.01,-0.0146,-0.0387,-0.0389,-0.045,-0.0448,-0.0445,-0.0363,0,0,0,0,0]}]]